Wind_Speed
48 47 46 46 45 45 45 45 44 44 44 44 44 44 44 44 44 45 45 45 46 47 48 49 50 51 52 53 54 54 53 53 53 53 53 52 52 52 51 51 50 50 49 49 48 48 47 47 46 46 46 46 45 46 46 46 46 46 46 47 47 48 48 49 49 49 48 47 46 46 47 48 48 48 49 50 51 52 53 54 56 58 59 58 56 54
49 48 48 48 48 47 47 46 45 44 42 41 41 42 43 43 44 44 45 46 47 48 49 50 51 52 53 54 55 55 55 55 54 54 54 54 54 53 53 52 52 51 50 49 49 48 47 47 47 46 46 46 46 46 46 47 47 47 48 48 49 49 50 51 51 52 52 52 52 51 51 51 51 51 52 53 53 54 54 54 55 56 57 56 55 54
47 47 48 49 50 49 49 48 46 44 41 40 39 40 41 42 43 44 46 47 48 49 50 51 52 53 54 55 56 56 56 56 55 55 55 55 55 54 54 53 53 52 51 50 49 48 48 47 47 47 47 47 47 47 47 48 48 49 50 50 51 52 52 53 54 54 54 55 55 55 54 53 52 52 53 54 55 55 55 53 53 54 54 54 54 55
43 43 44 46 48 49 49 48 46 44 42 40 40 40 41 43 44 46 47 49 50 51 52 53 53 54 55 56 57 57 57 56 56 56 55 55 55 55 54 54 53 52 51 50 49 48 48 48 48 48 48 48 48 48 48 49 50 51 52 53 54 55 55 55 55 54 53 53 53 54 54 53 53 53 54 55 56 56 55 53 51 51 51 52 54 56
39 39 40 42 44 46 46 46 45 44 42 41 41 41 42 43 45 47 49 50 51 52 53 53 54 54 55 56 58 58 58 57 56 56 55 55 55 55 54 54 53 52 51 50 49 48 48 49 49 48 48 48 48 49 49 51 52 53 55 57 58 59 58 56 53 50 49 49 50 52 53 53 54 55 56 57 57 56 55 53 51 49 49 51 55 58
39 39 38 39 40 42 43 43 43 42 41 41 41 41 42 43 45 47 48 49 50 51 52 53 53 53 54 55 57 58 58 57 56 55 55 55 55 55 54 53 52 51 50 49 49 49 49 49 48 48 48 48 49 50 51 52 53 54 56 59 61 61 59 55 50 47 47 48 50 52 53 54 56 57 57 57 56 56 54 53 52 51 51 54 57 59
41 40 39 39 40 41 41 41 41 41 41 41 41 42 42 42 44 45 46 47 48 49 49 50 50 51 52 53 55 56 56 55 55 54 54 54 54 54 54 53 52 51 50 50 50 50 49 49 48 48 48 49 50 51 52 53 54 55 58 60 60 58 54 51 48 48 49 51 53 55 56 57 57 57 56 55 54 53 52 51 52 53 54 56 58 58
40 41 40 40 40 40 40 41 41 41 41 41 41 40 40 40 41 42 43 44 44 45 45 46 47 48 49 51 52 53 53 53 52 52 52 53 53 53 53 52 52 51 51 50 50 50 50 50 49 49 50 50 51 52 54 54 55 56 58 59 57 54 51 50 50 51 54 56 57 59 60 60 60 58 56 55 53 52 51 51 51 52 53 54 55 54
36 37 38 38 38 38 39 40 40 40 39 38 37 35 35 35 37 38 40 40 41 41 41 41 42 43 45 47 49 50 51 51 51 51 51 51 52 52 52 52 52 52 52 52 52 52 52 52 51 51 51 51 52 53 53 53 54 55 56 56 55 54 52 53 54 55 56 58 60 61 62 62 61 60 57 55 53 52 52 51 51 50 50 51 51 50
31 32 32 33 34 35 36 36 37 36 35 33 31 29 30 31 33 35 37 38 39 39 39 38 38 38 39 41 44 46 48 50 51 52 52 52 52 53 53 53 52 53 53 53 53 53 53 52 51 50 49 50 50 50 49 49 49 49 50 51 52 52 53 54 54 55 55 57 58 59 60 58 57 55 54 52 52 51 51 50 49 48 48 47 47 47
28 29 29 29 30 32 33 34 34 33 31 29 27 25 26 27 29 31 33 36 37 38 38 38 37 35 34 35 37 40 43 47 49 51 52 53 53 54 54 54 53 53 53 53 53 52 50 48 46 45 46 48 48 48 47 46 44 43 43 43 44 45 47 48 48 48 49 50 51 52 51 49 48 47 47 47 47 47 47 46 45 45 44 44 45 46
27 27 27 27 28 29 31 33 34 32 31 29 27 26 26 26 27 28 30 32 35 37 38 39 38 36 33 30 30 32 34 38 41 44 46 49 50 51 52 52 52 52 51 49 47 45 43 42 42 43 46 47 48 48 47 46 43 41 39 38 38 39 39 40 41 41 41 42 43 43 42 42 42 43 43 44 44 44 43 43 43 43 43 45 48 51
25 25 25 26 27 28 30 31 32 32 32 31 30 28 27 26 26 26 27 29 30 32 35 37 38 37 34 30 26 24 25 26 29 31 34 37 39 42 43 45 45 45 44 42 40 39 38 39 41 43 45 46 47 46 44 42 39 37 36 35 35 36 37 38 38 39 39 39 39 39 40 41 42 43 44 44 43 42 41 41 43 45 48 52 56 59
21 21 23 24 26 27 28 28 29 29 30 31 31 30 27 25 24 23 24 24 25 26 28 31 34 36 35 32 28 24 21 22 23 25 26 28 30 31 33 34 35 35 34 33 32 32 32 33 35 37 38 39 39 38 36 34 32 32 32 33 34 35 37 38 39 40 39 39 38 38 39 40 41 43 43 43 43 42 42 44 47 51 55 58 61 61
17 17 18 20 21 22 23 24 24 25 27 29 30 29 27 25 23 22 22 22 22 23 24 26 29 32 33 32 30 27 24 23 23 23 24 25 25 26 26 26 26 26 25 26 27 27 27 27 27 28 28 29 29 30 30 31 32 33 33 34 35 36 38 39 40 39 38 37 36 36 36 37 38 40 41 42 43 43 45 48 51 54 57 59 59 59
14 13 13 14 15 16 17 18 20 21 23 25 26 27 26 24 23 22 22 22 23 23 23 24 26 28 29 30 30 29 27 26 25 23 23 23 23 23 22 23 23 23 23 25 26 27 26 25 25 25 25 26 27 29 31 33 35 36 36 37 37 38 39 39 39 39 38 37 36 35 34 35 36 38 40 42 43 45 47 49 51 53 55 55 55 55
13 12 12 12 12 12 13 14 16 17 19 20 22 23 23 22 22 21 21 22 22 22 23 24 25 26 27 28 29 29 28 27 26 25 24 23 23 23 22 22 23 24 25 25 26 27 27 26 26 26 27 27 28 29 31 33 35 36 37 37 38 38 39 39 38 38 38 38 37 37 36 36 36 38 40 42 44 45 47 48 49 50 51 51 51 51
13 13 13 13 13 13 13 13 14 15 16 17 18 18 18 18 18 18 18 19 19 20 20 21 22 23 24 25 26 27 27 27 27 27 26 25 25 25 24 24 24 25 25 26 26 27 27 28 28 28 29 29 30 30 31 32 33 34 35 36 36 37 37 37 38 38 39 39 39 39 38 38 38 39 40 42 43 44 45 45 46 46 46 46 46 46
15 15 15 15 15 15 15 15 16 16 17 17 18 17 17 17 17 17 17 18 18 18 18 19 19 20 21 22 23 24 24 25 26 26 26 26 26 26 26 25 25 25 25 26 26 27 28 28 29 30 31 31 32 32 33 33 33 34 34 35 36 36 37 37 38 38 39 40 40 40 40 39 39 39 40 40 40 40 41 41 41 41 41 41 40 40
17 17 17 17 17 17 17 18 18 18 19 19 19 19 19 19 19 19 20 20 20 20 20 19 20 20 20 20 21 22 22 23 24 25 25 25 26 26 26 26 26 26 26 27 27 27 28 29 31 32 32 33 34 34 34 35 35 35 36 36 37 38 38 39 39 39 39 39 39 38 38 38 38 37 37 36 36 36 36 36 36 36 36 36 36 36
18 19 19 19 19 19 20 20 20 20 20 20 21 21 22 22 22 23 23 23 23 23 22 22 23 23 22 22 23 23 22 23 24 25 26 26 26 27 27 27 27 27 28 28 29 29 29 31 32 33 34 35 35 36 36 36 37 37 38 38 39 39 39 40 39 38 38 37 36 36 35 35 35 35 34 34 33 33 33 33 33 33 33 33 33 33
20 21 21 21 21 21 22 22 21 21 22 22 23 24 24 25 25 25 26 26 26 26 25 26 26 25 25 25 26 26 25 25 26 27 27 28 28 29 29 29 29 30 31 31 31 30 31 32 33 34 35 35 36 36 37 37 38 38 38 39 39 39 39 38 37 36 35 34 34 33 33 32 32 32 32 31 31 30 30 30 30 30 30 30 30 29
22 22 22 22 23 23 23 23 23 23 23 23 24 25 25 25 26 26 27 27 27 27 27 27 27 27 27 27 28 28 27 27 28 29 29 30 31 31 31 30 31 32 33 33 32 32 32 34 34 35 35 35 35 36 36 36 36 37 37 37 37 37 36 35 34 34 33 32 32 31 30 30 29 29 28 28 27 27 27 27 27 27 27 27 27 27
23 23 23 24 24 24 24 24 24 24 24 24 25 25 25 25 25 26 26 26 27 27 27 28 28 28 29 29 29 29 29 29 29 30 30 31 32 32 31 31 32 33 34 33 32 32 33 33 34 34 33 33 33 33 33 33 34 34 34 34 34 34 33 32 32 31 30 30 29 28 27 27 26 26 25 25 24 24 24 24 25 25 25 25 26 26
23 23 24 24 24 24 24 24 24 24 24 24 24 24 24 25 25 26 26 26 27 27 28 28 28 28 29 29 29 30 30 30 30 30 31 31 31 32 32 31 32 32 33 32 31 31 32 32 32 32 31 31 31 31 30 30 31 31 31 31 30 30 30 29 29 28 27 27 26 25 25 24 24 24 24 24 24 24 24 25 25 26 26 26 27 27
23 23 23 23 23 23 23 23 23 23 23 23 23 23 23 24 24 25 25 26 26 26 26 26 27 28 28 27 28 29 29 29 29 29 30 29 29 29 30 30 30 31 31 30 30 29 30 30 30 29 29 29 29 28 28 28 28 28 28 28 27 27 26 26 26 25 25 24 24 24 24 24 24 24 24 24 25 25 26 26 26 27 27 27 27 28
22 22 21 21 21 21 21 21 21 21 21 22 22 22 22 22 23 24 24 24 24 24 24 25 26 26 26 25 26 27 27 26 26 27 28 27 26 26 27 27 27 28 29 28 27 27 27 28 28 27 26 26 26 26 26 26 26 26 26 25 25 25 24 24 24 24 24 24 24 24 24 25 25 25 25 26 26 26 27 27 27 27 27 27 27 28
20 20 19 19 19 19 19 19 19 19 20 20 21 21 22 22 22 22 22 22 21 21 22 23 23 23 22 23 24 25 25 24 24 25 25 24 24 25 25 24 24 26 27 27 26 25 25 26 26 25 24 24 25 25 25 25 25 25 24 24 24 24 24 24 24 24 24 24 25 25 25 26 26 26 26 26 26 26 27 27 27 27 27 26 27 27
18 17 17 17 17 18 18 18 18 18 19 19 19 20 20 20 20 20 20 19 18 19 21 22 21 20 20 21 22 23 23 23 23 23 22 22 23 25 24 22 23 25 26 26 24 24 24 25 25 24 24 24 24 24 25 25 25 24 24 24 24 24 24 24 25 25 25 26 26 26 26 26 26 26 26 26 26 26 26 26 26 26 26 26 26 26
15 15 15 16 17 17 17 18 18 18 17 17 16 16 17 17 18 18 18 16 16 18 19 19 19 18 19 20 20 21 21 22 21 20 19 21 23 24 23 21 22 24 25 25 24 23 24 24 24 24 24 24 24 24 25 25 25 25 24 25 25 25 25 26 26 26 27 27 27 27 27 27 27 26 26 26 26 26 26 26 25 25 25 25 26 26
14 14 15 15 16 16 17 17 17 17 16 15 15 15 15 15 16 17 16 15 16 17 18 18 18 17 17 18 18 19 20 20 19 18 18 21 23 24 21 20 21 23 24 23 23 23 24 24 24 24 24 25 25 25 25 25 25 25 25 26 26 26 27 27 27 27 28 28 27 27 27 27 27 26 26 26 26 25 25 25 24 24 25 25 26 27
14 14 15 15 15 16 16 16 17 17 16 16 15 16 16 16 16 16 16 16 16 17 17 18 17 17 17 17 18 18 19 19 18 17 18 20 22 23 20 20 21 23 23 23 23 23 24 24 24 24 24 25 26 26 26 25 26 26 27 27 27 27 28 28 28 28 28 28 28 27 27 27 27 26 26 25 25 25 24 24 24 24 25 26 27 28
14 14 15 15 15 15 16 16 17 17 17 17 18 18 18 18 18 18 17 17 17 17 17 18 18 17 17 17 18 19 19 19 18 18 18 20 22 22 20 20 21 22 23 22 22 23 24 24 24 24 24 25 26 26 26 26 26 27 27 27 28 28 28 28 28 28 28 28 27 27 27 26 26 25 25 24 24 24 24 24 24 24 25 26 27 28
15 15 15 15 15 16 16 16 17 18 19 19 20 20 20 20 20 20 20 19 19 18 18 18 18 18 17 17 18 19 19 19 19 18 18 20 22 22 21 20 20 22 22 22 22 23 23 24 24 23 23 24 25 26 26 26 26 26 27 27 28 28 28 27 27 27 28 27 27 26 26 25 25 24 24 23 23 23 23 24 25 25 26 26 27 28
16 17 17 17 16 16 16 16 17 18 19 20 21 21 22 22 22 21 21 20 20 19 19 18 18 18 18 18 18 19 20 20 19 19 19 20 22 22 21 20 20 21 21 22 22 22 22 23 23 23 23 23 24 24 25 25 25 25 26 26 27 27 27 26 26 26 26 26 26 25 25 24 23 23 23 23 23 23 24 25 25 26 26 27 27 28
18 18 18 18 18 18 17 17 17 18 18 19 20 21 21 22 22 22 21 21 20 19 19 19 18 18 18 18 18 19 20 20 19 18 19 20 21 21 21 21 21 20 20 21 22 22 21 22 22 22 22 22 23 23 23 24 24 25 25 26 25 25 25 25 25 25 25 25 25 24 23 23 22 23 23 23 24 24 25 25 26 27 27 27 27 28
19 19 19 19 19 19 19 18 18 18 18 18 19 19 20 20 21 21 20 20 19 19 19 18 18 18 17 18 18 19 19 19 18 18 19 20 20 20 21 21 21 20 20 21 21 21 21 21 22 22 22 22 22 22 22 22 23 24 25 25 24 23 24 24 24 24 24 24 24 23 23 22 23 23 24 24 25 25 25 26 27 27 27 27 27 28
19 19 19 19 19 20 19 19 19 19 18 18 18 19 19 19 19 19 19 19 18 18 18 18 18 18 17 17 17 17 18 18 18 18 19 19 20 20 21 21 21 20 20 21 21 21 21 21 21 21 21 22 22 22 22 22 22 23 24 23 23 23 23 23 23 22 23 23 23 23 23 23 23 24 25 25 25 25 26 27 27 27 27 27 27 28
18 18 18 18 19 19 19 19 19 19 19 19 19 19 19 19 19 19 19 18 18 18 18 18 18 18 18 17 17 17 17 18 18 19 19 19 20 20 20 21 21 20 20 20 21 21 21 21 22 22 22 22 22 23 23 23 22 23 23 23 23 23 23 23 22 22 23 23 23 23 23 23 24 24 25 26 26 26 26 27 27 27 27 27 28 28
16 16 17 17 17 17 18 18 18 18 18 19 19 19 19 19 19 19 19 19 19 19 19 19 19 19 18 18 17 17 18 18 19 19 20 20 20 20 20 21 21 21 20 20 21 21 22 22 22 22 22 22 23 23 23 23 23 23 23 23 23 23 23 22 22 23 23 23 23 23 24 24 24 25 25 26 26 26 27 27 27 28 28 28 28 29
15 15 15 15 15 16 16 16 17 17 18 18 19 19 19 19 19 19 19 19 19 19 20 19 19 19 19 18 18 18 18 19 20 20 21 21 21 21 21 21 21 21 21 21 21 22 22 22 23 23 23 23 23 24 24 24 24 24 24 24 24 24 23 23 23 24 24 24 24 24 25 25 25 25 26 26 27 27 27 28 28 28 29 28 29 29
15 15 14 14 14 15 15 15 16 16 17 17 18 18 19 19 19 19 19 19 19 19 19 18 18 19 19 19 19 19 19 20 20 21 21 21 21 22 22 22 22 22 22 22 22 23 23 23 23 24 24 24 24 24 25 25 25 24 24 25 25 25 25 25 25 25 25 26 26 26 26 26 26 26 27 27 27 28 28 28 29 29 29 29 29 30
14 14 14 14 15 15 15 15 15 16 16 17 17 17 18 18 18 19 19 19 19 18 18 18 18 18 19 19 20 20 20 20 21 21 22 22 22 22 22 23 23 23 23 23 23 24 24 23 24 24 25 24 24 25 26 26 25 25 25 26 26 26 26 26 26 26 26 27 28 27 27 27 27 27 28 28 28 28 29 29 29 30 30 30 30 30
14 14 14 15 15 15 15 16 16 16 16 16 17 17 17 17 18 18 18 18 18 18 18 18 18 18 19 20 20 20 21 21 22 22 22 22 22 23 23 23 24 24 24 24 25 25 25 25 25 25 25 25 25 26 26 26 26 26 26 26 27 27 27 28 27 27 27 28 29 29 28 28 28 28 29 29 29 29 29 29 30 30 30 30 31 31
14 14 14 15 15 15 16 16 16 16 17 17 17 17 17 18 18 18 18 18 18 18 18 18 18 19 20 21 21 21 21 22 22 23 23 23 23 24 24 24 25 25 25 25 26 26 26 26 26 26 26 26 26 26 26 26 26 26 27 27 27 27 28 28 28 28 28 29 29 29 29 29 29 29 29 29 29 29 29 30 30 30 30 31 31 31
14 14 14 15 15 16 16 16 17 17 17 18 18 18 18 18 18 19 19 19 18 18 19 19 19 20 21 21 22 22 23 23 24 24 24 24 25 25 25 26 26 26 26 26 27 27 27 27 27 27 26 26 27 27 27 26 26 26 27 27 27 27 28 29 28 28 28 29 29 29 29 29 29 30 30 29 29 29 29 30 30 30 30 31 31 31
14 14 15 15 15 16 16 16 17 17 18 18 18 18 18 19 19 19 19 19 19 19 20 20 20 21 22 22 23 23 24 24 25 25 25 26 26 26 27 27 27 27 28 28 28 28 28 28 28 27 27 27 27 27 27 26 26 26 27 27 27 27 28 29 28 28 28 29 29 29 29 29 29 29 29 29 29 29 29 29 30 30 30 31 31 32
15 15 15 15 15 16 16 16 17 17 17 18 18 18 18 19 19 19 20 20 20 20 21 21 21 22 23 23 24 24 25 26 26 26 27 27 27 28 28 28 28 28 29 29 29 29 29 28 28 28 28 27 27 27 27 26 26 27 27 27 27 27 28 28 28 28 28 28 29 29 29 28 29 29 29 29 29 29 29 29 30 30 31 31 32 32
15 15 15 15 15 15 15 16 16 16 17 17 17 18 18 18 19 19 19 20 20 21 21 22 22 23 23 24 24 25 25 26 27 27 28 28 28 29 29 29 29 29 30 30 30 29 29 29 29 29 28 28 27 27 27 27 27 27 27 27 27 27 28 28 28 28 28 28 28 29 28 28 29 29 29 29 29 29 29 30 30 30 31 31 32 32
15 15 15 15 15 15 15 15 15 16 16 16 16 17 17 17 18 18 18 19 19 20 21 21 22 22 23 24 24 25 25 26 27 27 28 28 28 29 29 30 30 30 30 30 30 29 29 29 29 29 29 28 27 27 27 27 27 27 27 28 28 27 27 28 28 27 27 28 28 28 28 28 28 29 29 29 29 29 29 29 30 30 30 31 31 32
15 15 15 15 15 15 15 15 15 15 15 16 16 16 16 16 17 17 18 18 19 19 20 20 21 21 22 22 23 23 24 25 26 26 27 27 27 28 29 29 30 30 29 29 29 29 28 28 28 27 27 27 27 27 26 26 26 27 27 27 27 27 27 27 27 27 27 27 27 28 28 28 28 28 28 29 29 29 29 29 29 29 30 30 31 31
Wind_Direction
241 236 232 231 231 230 230 230 231 232 233 233 233 234 235 236 238 239 240 241 242 243 244 244 245 245 245 246 246 246 246 245 244 244 244 243 242 241 240 239 238 237 236 235 235 236 236 238 239 241 242 243 245 246 247 248 249 250 251 252 252 252 252 252 252 251 250 248 247 247 248 249 251 254 258 260 262 262 262 262 262 262 262 263 264 266
240 236 232 230 229 228 228 229 231 233 234 234 234 235 236 237 239 240 241 242 243 244 245 245 245 245 245 246 246 246 246 245 244 243 243 243 242 241 240 239 238 237 237 236 237 238 239 240 242 243 244 245 247 248 249 250 251 252 253 254 254 254 253 253 252 251 249 248 247 247 249 251 254 257 260 262 263 263 263 263 262 262 263 264 265 267
239 237 234 231 229 229 230 232 234 236 238 238 237 237 237 238 239 240 241 242 244 245 245 246 246 246 245 245 245 245 245 245 244 243 243 242 242 241 240 240 239 238 238 238 239 240 241 243 244 245 246 247 248 249 250 251 252 253 254 254 254 254 254 253 252 251 250 249 249 248 250 252 255 258 260 262 262 262 262 262 263 263 264 265 267 268
239 239 237 234 231 231 234 237 239 242 243 242 241 239 238 238 239 239 240 242 243 244 245 246 247 247 247 246 245 245 244 244 244 243 242 242 241 241 241 240 240 240 240 240 241 242 244 245 246 247 248 248 249 250 251 252 252 253 254 254 254 253 253 252 252 252 253 253 253 252 252 254 256 259 261 261 261 260 259 259 261 263 264 266 268 269
237 237 237 234 233 235 238 241 243 245 245 244 242 240 239 238 238 239 240 241 242 244 245 246 248 248 248 247 246 245 244 243 243 243 242 242 241 241 241 241 241 241 241 242 243 244 246 247 248 249 250 250 250 251 251 252 252 253 253 253 253 252 251 251 251 253 256 257 258 257 257 257 259 262 263 261 260 258 257 256 257 260 263 266 267 268
233 233 233 233 235 238 240 242 244 244 244 243 242 240 238 238 238 239 240 241 243 244 245 246 248 249 249 248 247 245 243 242 242 242 242 242 242 241 241 241 241 242 243 244 245 247 248 250 251 252 252 253 253 252 252 252 252 253 253 254 254 253 252 251 252 255 259 261 261 260 259 259 261 263 263 262 261 260 259 257 256 257 259 262 264 266
230 230 231 233 235 238 240 241 241 241 241 241 241 240 239 238 237 238 239 241 242 243 244 245 246 247 248 247 246 244 242 241 240 240 241 242 242 242 241 242 242 243 244 245 247 249 251 253 255 256 256 256 256 256 255 254 254 254 254 255 255 255 254 254 256 259 261 262 261 260 259 258 258 259 259 260 261 262 262 261 260 259 259 260 262 264
230 231 232 233 235 236 236 237 237 237 238 238 238 238 237 236 236 237 237 238 239 239 240 241 242 243 244 244 244 243 241 239 238 239 240 241 242 242 242 242 243 244 245 247 249 252 255 257 258 259 259 260 259 259 258 257 256 256 256 256 256 256 256 257 259 261 262 261 260 259 257 255 254 253 254 257 259 261 263 263 263 262 262 262 263 264
230 230 230 229 229 229 230 232 234 235 235 235 234 234 233 233 234 234 234 235 235 235 235 235 236 237 239 241 242 242 241 239 237 237 238 240 241 241 242 243 244 245 247 249 252 255 257 259 259 259 259 259 259 259 258 258 257 257 256 256 255 256 257 258 259 259 259 258 257 257 256 256 254 254 254 256 259 261 263 264 265 265 265 265 265 265
222 222 220 219 219 220 222 225 228 229 229 228 228 229 231 233 233 234 233 233 233 233 233 233 233 234 236 239 241 242 242 240 238 237 237 238 240 241 242 244 245 247 250 252 254 256 257 257 256 255 255 255 256 256 256 256 256 256 256 255 255 255 256 256 256 256 255 255 256 257 258 259 259 258 258 258 260 263 265 266 267 268 268 268 268 268
211 210 208 207 209 212 216 218 220 221 221 219 219 222 226 229 231 232 233 234 235 236 236 235 234 234 236 238 239 240 241 240 239 238 238 239 240 242 243 245 247 249 251 252 253 253 252 251 250 250 250 251 252 252 253 253 254 255 255 255 256 256 256 256 255 255 256 257 258 260 262 263 262 261 260 260 261 263 265 268 269 270 271 272 273 273
202 203 202 202 204 209 214 217 218 218 215 213 211 213 215 218 221 225 229 234 237 238 238 237 236 235 235 237 238 238 238 238 238 238 238 239 240 241 243 244 245 246 247 247 246 246 246 247 248 250 251 251 251 251 252 254 255 256 256 257 258 259 259 258 257 257 258 259 260 262 263 263 263 262 262 262 263 264 266 269 271 273 275 276 277 277
196 197 198 201 204 208 212 214 216 216 215 213 210 208 208 209 213 221 228 234 237 238 238 237 235 233 232 232 234 236 237 237 236 236 235 236 236 237 238 239 239 240 241 242 243 245 248 252 254 255 255 254 253 253 255 257 259 260 261 261 262 262 262 262 261 261 261 261 262 262 263 264 265 266 267 267 267 268 269 271 273 274 275 275 274 272
199 198 197 199 203 206 209 210 210 211 212 212 212 211 210 211 215 222 230 234 237 237 237 236 233 231 229 227 228 230 234 236 237 237 236 236 235 235 236 237 238 240 243 247 252 256 259 260 261 260 259 257 256 257 258 261 263 264 265 266 266 266 266 266 265 264 263 262 262 262 264 266 268 271 272 272 272 272 272 272 272 272 270 268 267 265
217 212 208 206 207 210 211 212 212 213 214 216 217 218 220 222 226 230 235 238 240 240 238 237 235 233 231 230 230 231 234 237 240 242 242 242 242 242 241 242 245 249 253 258 262 265 267 267 265 264 263 261 261 262 263 264 265 266 266 267 266 266 265 265 264 263 262 260 259 259 261 264 268 270 272 272 272 272 271 270 269 267 265 264 263 262
238 236 231 227 225 225 226 227 227 227 227 227 228 230 232 235 238 241 243 245 246 246 244 243 242 240 239 238 238 239 242 244 246 247 247 247 247 247 247 247 250 253 256 259 262 264 266 267 267 266 265 265 265 266 266 266 266 265 265 264 263 262 261 260 260 260 259 258 257 258 259 262 264 266 268 268 268 268 267 266 265 264 263 263 263 263
250 251 249 248 246 244 243 242 242 241 240 240 241 243 244 246 247 249 250 250 250 250 249 248 248 247 246 246 246 247 249 250 252 252 251 250 250 249 249 250 251 253 255 257 260 262 264 266 266 266 266 266 266 266 266 266 267 267 266 265 263 261 259 258 258 259 259 259 259 259 259 260 261 262 262 263 263 263 262 262 262 262 262 263 264 265
251 251 251 251 250 250 249 250 249 248 246 246 247 248 250 250 251 252 252 252 252 252 252 252 251 250 250 250 250 250 251 252 254 254 254 253 253 252 252 253 254 255 257 259 261 263 264 265 265 265 265 265 265 265 265 265 266 267 267 267 267 265 263 262 261 261 261 261 260 260 259 259 258 258 258 259 260 260 261 262 262 263 264 266 267 269
251 250 249 247 247 248 248 249 248 248 246 245 245 246 246 246 246 246 247 247 248 249 250 252 253 253 252 253 253 253 253 254 256 257 258 258 258 258 257 257 258 259 261 262 263 264 265 265 265 264 264 264 263 263 263 264 264 265 266 266 267 267 266 265 264 263 262 261 261 261 261 261 261 261 262 263 263 264 265 265 266 267 269 270 271 272
254 253 252 250 248 247 246 246 246 245 245 245 245 245 245 244 244 244 244 245 245 247 248 250 251 252 253 254 254 255 255 256 258 260 261 262 263 263 263 263 263 264 265 265 265 265 266 266 265 264 264 263 263 262 262 262 262 263 263 263 263 263 263 263 263 262 262 262 262 263 264 265 266 268 269 270 270 270 270 270 270 271 271 271 272 272
256 256 256 255 253 250 248 246 245 244 243 244 245 245 244 244 243 244 245 245 246 246 247 249 250 250 251 253 254 255 255 256 258 259 260 262 263 264 264 264 265 266 266 266 266 266 266 266 266 265 264 264 263 262 261 261 261 261 260 260 260 260 260 260 260 261 261 262 263 264 266 267 269 270 272 272 273 272 272 271 271 271 271 271 271 271
255 256 257 257 255 253 250 248 246 245 244 244 243 243 242 242 242 243 244 245 245 246 246 247 247 248 249 251 253 254 254 254 256 257 258 259 260 260 261 262 263 264 264 264 264 265 265 265 265 265 264 263 263 262 261 260 259 259 259 258 258 258 258 259 259 260 262 263 264 266 267 268 270 271 271 272 272 271 271 271 271 270 270 270 271 271
253 253 253 253 253 252 250 248 247 246 245 245 244 243 243 243 243 244 245 246 246 247 247 247 248 249 249 250 252 253 253 253 255 256 257 257 257 258 258 259 260 260 260 261 261 262 263 263 263 263 263 262 262 261 261 260 259 259 259 259 259 259 259 260 261 262 263 265 266 267 268 269 270 270 270 270 270 269 269 269 270 270 270 270 270 271
250 249 248 248 248 248 247 245 244 244 244 244 244 243 243 244 245 246 246 247 247 248 248 248 249 249 249 249 251 252 252 252 253 254 255 255 256 256 257 257 258 258 259 259 259 260 261 261 261 261 262 262 262 262 261 261 261 261 261 261 261 261 262 263 264 265 266 267 267 268 268 268 268 268 268 268 268 268 268 268 268 269 269 269 270 270
248 246 245 244 243 243 243 242 241 240 241 241 241 242 242 243 244 245 246 246 246 247 247 248 248 248 248 248 249 250 251 251 251 252 253 253 254 254 255 255 256 256 257 258 258 258 258 259 260 260 261 261 262 263 263 263 263 263 263 263 263 264 264 264 265 266 267 267 267 267 267 266 266 266 266 267 267 267 268 268 268 269 269 269 270 270
248 246 244 243 242 242 241 240 239 238 237 237 238 239 240 241 242 243 244 245 244 245 245 246 246 246 247 247 247 247 248 248 248 249 250 251 251 252 252 252 253 254 255 256 256 256 257 258 259 260 261 262 263 264 264 264 265 265 265 264 264 264 265 265 266 266 266 266 265 265 265 266 266 267 267 268 268 269 269 269 269 269 269 269 269 270
247 247 246 245 244 243 242 240 239 238 238 238 239 239 240 240 241 242 243 243 242 242 244 244 245 245 246 246 246 246 247 247 247 247 247 248 249 250 251 250 250 252 253 255 256 255 256 258 259 261 261 262 263 265 265 265 265 265 265 265 264 264 265 265 265 265 265 265 265 265 266 267 267 268 269 269 270 270 269 269 269 269 269 269 269 269
244 245 244 244 243 242 242 242 242 243 243 244 244 244 244 243 243 243 243 243 242 242 244 245 245 246 246 246 246 246 247 247 247 247 246 247 249 250 251 250 250 251 253 255 256 256 256 258 260 262 263 263 264 265 266 266 265 265 264 264 264 264 264 264 264 264 264 265 265 266 267 268 269 270 270 270 270 270 269 269 269 269 269 269 269 269
239 238 238 238 239 240 241 242 244 245 246 247 247 247 247 245 244 243 244 244 244 245 247 248 248 248 248 247 247 248 248 248 248 248 249 250 251 252 253 252 252 252 253 255 257 259 259 259 261 263 264 264 264 265 265 266 265 265 264 264 264 264 263 263 263 264 265 266 266 267 268 269 269 270 270 270 270 270 269 269 269 269 270 270 270 270
234 232 233 235 238 240 241 242 243 243 243 243 243 243 243 243 242 241 241 243 245 246 248 250 250 249 249 248 249 249 250 250 250 251 252 253 254 255 255 255 255 255 255 257 259 261 261 261 261 263 264 264 264 264 264 264 264 264 263 263 263 262 262 263 263 264 265 266 267 268 269 269 269 270 270 270 270 270 270 270 270 271 271 271 272 272
232 231 231 234 238 241 242 241 241 239 237 236 236 237 238 238 239 238 239 242 244 246 249 251 251 250 248 247 248 250 251 251 252 253 254 255 256 256 257 256 257 257 257 258 260 262 262 262 262 262 263 264 264 263 262 262 263 263 263 263 263 263 263 263 264 265 266 267 267 268 269 269 269 269 269 270 270 270 270 271 271 272 272 272 272 272
238 237 237 238 240 242 243 242 239 237 234 234 234 235 236 237 237 239 240 243 245 248 250 251 251 249 247 246 246 248 251 252 253 254 255 256 257 258 258 256 257 258 259 260 260 262 263 263 263 262 263 264 264 264 263 262 262 263 263 263 264 264 264 265 265 266 267 267 268 268 268 268 269 269 269 269 270 270 271 271 272 272 272 272 271 271
246 246 246 245 245 245 245 243 240 238 237 236 237 237 238 238 239 241 244 246 248 250 251 251 249 247 245 245 246 248 251 253 253 254 255 257 259 259 259 257 257 259 261 261 261 261 262 263 263 263 262 263 264 264 264 264 263 263 264 264 265 266 266 266 266 267 267 268 268 268 268 268 269 269 269 270 270 271 271 272 272 271 271 271 270 270
252 253 252 251 250 249 248 246 243 241 240 239 240 240 240 241 243 244 247 249 250 251 251 249 248 246 245 244 246 248 251 252 253 254 255 257 259 260 260 258 257 259 261 262 262 261 261 262 262 262 262 262 262 263 264 265 265 265 265 265 266 267 267 267 267 267 268 268 268 268 268 269 269 270 271 271 272 272 272 272 271 270 270 269 269 269
257 257 257 257 256 254 252 249 247 244 242 242 242 242 243 244 245 247 248 250 251 251 251 249 247 245 244 245 246 248 250 252 253 254 256 257 258 259 261 259 259 259 260 261 262 261 260 261 262 262 262 262 262 262 263 264 265 266 266 266 266 267 268 268 268 268 269 269 270 270 270 271 272 272 273 273 272 272 271 270 269 269 268 268 268 268
256 257 258 259 259 258 255 252 248 245 243 243 242 242 243 244 246 247 248 249 250 250 249 248 247 246 245 245 246 248 250 252 254 255 256 257 257 259 260 260 259 259 260 261 261 261 260 261 261 262 262 262 262 262 262 263 264 266 267 267 267 267 268 269 269 269 270 270 271 271 271 272 273 273 273 272 271 270 269 269 268 268 268 268 267 267
254 255 256 257 258 257 255 252 248 244 241 241 241 241 241 242 244 245 246 246 247 248 248 248 247 247 246 246 247 249 251 253 255 256 256 257 257 258 259 260 260 259 259 260 260 261 260 260 261 262 261 261 262 263 263 263 264 265 266 267 268 269 269 270 270 270 271 271 271 271 272 272 272 272 271 270 270 269 268 268 267 267 268 268 268 268
252 252 253 254 255 254 252 249 245 241 238 238 238 238 238 239 241 242 243 244 245 247 248 249 250 250 250 250 251 252 254 255 256 256 256 256 257 257 258 259 259 259 258 258 259 260 260 260 260 261 262 262 262 263 264 265 265 265 266 268 269 270 270 271 271 271 271 271 271 271 271 271 270 270 270 269 269 268 268 268 268 268 268 268 268 268
250 250 250 251 251 250 249 245 242 239 238 238 237 237 237 238 239 241 242 244 246 249 251 252 253 253 253 253 254 255 257 257 257 257 256 256 256 256 257 257 258 257 257 257 258 259 260 260 260 261 262 263 264 264 265 266 266 267 268 269 270 270 270 271 272 273 272 271 271 270 270 269 269 269 269 269 269 268 268 268 268 268 268 268 269 269
249 248 248 248 248 248 246 244 242 241 240 240 240 239 239 240 241 243 245 247 250 253 255 256 256 256 254 254 254 256 257 258 258 256 255 254 254 254 255 256 256 257 257 257 257 258 259 260 261 262 262 263 264 265 266 266 267 268 269 270 271 270 270 271 272 273 272 271 270 270 269 269 268 268 268 269 269 269 268 269 269 269 269 268 269 270
248 248 247 247 248 248 247 247 246 245 244 244 244 244 244 244 245 247 248 250 251 254 256 257 257 256 255 254 253 254 256 256 256 254 253 252 252 252 254 255 256 256 257 257 257 258 259 260 262 263 263 264 265 266 267 267 268 269 270 270 271 271 271 271 271 271 272 271 270 270 269 269 268 268 268 269 269 269 269 269 269 269 269 269 269 270
248 248 247 248 248 249 249 249 249 249 248 249 249 249 249 249 250 250 251 250 250 250 252 254 255 255 255 254 253 253 253 254 254 253 252 251 251 252 253 254 255 256 257 258 258 258 259 261 262 263 264 264 265 266 267 268 268 269 270 270 271 272 272 270 270 270 271 271 271 270 269 269 269 269 269 269 269 269 269 269 270 270 270 270 270 270
247 247 247 248 248 249 250 250 250 251 252 253 254 254 254 254 254 255 254 252 250 249 249 251 252 253 254 254 254 253 253 253 254 253 253 252 252 253 254 255 256 257 258 258 259 259 260 261 262 263 264 264 265 266 267 268 269 269 270 270 271 272 272 271 270 270 270 271 271 271 271 271 270 270 270 269 269 269 270 270 270 270 271 271 271 271
247 247 247 247 248 248 249 250 251 252 253 255 256 257 257 256 257 258 258 257 254 251 250 250 251 252 253 254 255 255 254 255 255 255 255 255 255 256 256 257 257 258 259 259 260 261 261 261 262 262 264 265 265 266 266 268 269 269 270 270 271 271 271 271 271 271 270 270 271 271 271 271 271 271 270 270 270 270 270 270 270 271 271 271 272 273
247 247 248 248 248 248 249 250 251 252 253 255 256 258 258 258 258 259 260 261 259 256 252 250 250 251 252 254 255 256 257 257 257 257 258 259 259 259 260 260 260 260 261 261 261 262 263 263 263 263 264 265 265 266 267 268 268 269 269 270 270 271 271 271 271 271 271 271 271 271 271 271 271 271 271 271 271 271 271 271 271 271 272 272 273 273
248 249 249 249 250 250 250 251 252 253 254 255 257 258 258 258 259 260 262 263 263 261 258 255 253 252 253 253 254 255 256 257 258 259 260 260 261 262 262 263 263 263 263 263 263 263 263 264 264 265 265 266 266 266 267 268 268 269 269 269 270 270 270 271 271 271 270 270 270 270 270 271 271 271 271 271 271 271 271 271 272 272 273 273 274 274
250 250 250 251 251 252 252 252 253 254 255 256 257 258 258 259 260 261 262 263 264 264 262 260 258 256 255 255 255 255 256 257 258 259 260 261 262 262 263 263 264 265 265 265 265 265 264 265 265 266 266 267 267 267 268 268 268 269 269 269 269 269 269 269 269 269 269 269 269 269 269 270 270 270 270 270 271 271 271 272 272 273 274 275 275 276
251 251 251 252 252 252 253 253 254 255 256 257 258 258 259 259 260 261 262 263 263 264 264 262 260 259 259 258 258 258 258 258 259 260 260 261 262 263 263 264 264 265 265 265 266 266 266 266 266 267 267 267 267 268 268 268 268 268 268 268 268 267 267 268 268 268 268 268 268 268 269 269 269 269 269 270 270 271 272 272 273 274 275 276 277 278
252 252 252 252 252 252 253 253 254 255 256 256 257 258 259 259 260 261 262 262 263 263 263 262 262 262 262 261 261 261 261 262 262 262 262 262 263 264 264 265 265 265 265 266 266 267 267 267 268 268 268 268 268 268 267 267 267 267 267 266 266 266 266 266 267 267 267 268 268 268 269 269 269 269 270 270 271 272 273 274 275 276 277 278 279 279
252 252 252 252 252 252 253 253 254 255 256 256 257 258 259 259 259 260 261 261 262 263 263 263 264 264 264 264 264 264 264 264 264 264 264 264 265 265 266 266 266 266 266 267 267 267 268 268 268 268 268 268 268 267 267 266 266 265 265 266 266 266 266 266 267 267 267 268 268 269 269 270 270 271 272 272 273 274 275 276 277 278 278 279 280 281
251 251 252 252 252 252 253 253 254 255 256 256 257 258 258 259 259 260 261 261 262 263 263 264 264 265 265 265 265 265 265 265 266 266 266 266 266 267 266 267 267 267 267 267 267 268 268 268 267 267 268 268 268 267 266 266 265 265 265 266 266 267 267 268 268 268 269 269 269 270 271 271 272 273 274 274 275 276 277 278 279 279 280 281 281 282
Height
3019 3021 3023 3024 3025 3026 3027 3029 3030 3031 3031 3032 3033 3034 3035 3036 3037 3038 3040 3041 3042 3043 3044 3045 3046 3047 3047 3048 3048 3049 3050 3050 3051 3052 3053 3053 3054 3055 3056 3057 3058 3058 3059 3060 3061 3062 3063 3064 3065 3066 3066 3067 3068 3069 3069 3070 3071 3071 3072 3072 3072 3073 3073 3074 3074 3075 3075 3076 3077 3077 3077 3076 3076 3076 3076 3076 3076 3075 3075 3075 3075 3075 3075 3074 3074 3074
3015 3017 3019 3020 3022 3023 3024 3025 3026 3027 3027 3028 3029 3031 3032 3033 3034 3035 3037 3037 3039 3040 3041 3042 3043 3044 3044 3045 3046 3046 3047 3047 3048 3049 3050 3050 3051 3052 3053 3054 3055 3056 3056 3057 3058 3059 3060 3061 3062 3063 3064 3065 3065 3066 3067 3067 3068 3068 3069 3069 3069 3070 3070 3070 3071 3071 3072 3072 3072 3073 3073 3072 3072 3072 3072 3072 3072 3072 3072 3072 3072 3072 3072 3071 3070 3070
3011 3013 3014 3016 3017 3019 3020 3021 3022 3023 3023 3025 3026 3027 3028 3030 3031 3032 3033 3034 3035 3036 3037 3038 3039 3040 3041 3042 3042 3043 3044 3044 3045 3046 3047 3047 3048 3049 3050 3051 3052 3053 3053 3055 3056 3057 3057 3058 3059 3060 3061 3062 3062 3063 3063 3064 3065 3065 3066 3066 3066 3066 3067 3067 3067 3067 3067 3067 3068 3068 3069 3069 3069 3069 3069 3069 3069 3069 3068 3069 3069 3069 3069 3068 3067 3067
3007 3009 3010 3012 3013 3015 3016 3017 3018 3020 3020 3021 3022 3024 3025 3026 3027 3028 3030 3031 3032 3033 3034 3035 3035 3036 3037 3038 3039 3039 3040 3041 3042 3043 3044 3044 3045 3046 3047 3048 3049 3050 3051 3052 3053 3054 3055 3056 3056 3057 3057 3058 3059 3059 3060 3061 3062 3062 3062 3063 3063 3063 3063 3063 3063 3063 3063 3064 3064 3064 3065 3066 3066 3066 3065 3065 3065 3065 3066 3066 3067 3067 3066 3065 3064 3063
3004 3005 3007 3008 3010 3011 3012 3014 3015 3016 3017 3018 3019 3020 3021 3022 3023 3025 3026 3027 3028 3029 3030 3031 3032 3032 3033 3034 3034 3035 3036 3037 3038 3040 3041 3042 3042 3043 3044 3045 3046 3047 3048 3049 3050 3051 3052 3052 3053 3053 3054 3054 3055 3056 3057 3057 3058 3058 3059 3059 3059 3058 3058 3058 3058 3059 3060 3060 3061 3062 3062 3062 3063 3062 3062 3062 3061 3061 3062 3062 3064 3064 3064 3063 3062 3061
3001 3002 3004 3006 3007 3007 3008 3010 3011 3012 3013 3014 3015 3016 3017 3019 3020 3022 3023 3024 3025 3026 3026 3027 3028 3028 3029 3030 3031 3031 3032 3033 3035 3036 3037 3038 3039 3040 3041 3042 3043 3044 3045 3046 3047 3047 3048 3049 3049 3050 3050 3051 3052 3052 3053 3054 3054 3055 3055 3055 3055 3054 3054 3054 3054 3055 3056 3057 3057 3058 3058 3059 3060 3060 3059 3058 3057 3057 3057 3058 3060 3061 3062 3061 3060 3058
2998 3000 3001 3003 3003 3004 3005 3006 3007 3008 3009 3010 3011 3013 3014 3016 3017 3018 3019 3020 3021 3022 3022 3023 3024 3025 3026 3026 3027 3027 3028 3029 3031 3032 3034 3035 3036 3037 3038 3039 3040 3041 3042 3042 3043 3044 3045 3045 3046 3046 3047 3047 3048 3049 3049 3050 3050 3051 3051 3051 3051 3050 3051 3051 3052 3052 3053 3053 3054 3054 3055 3056 3057 3058 3058 3057 3055 3055 3055 3055 3056 3056 3057 3057 3056 3055
2995 2996 2998 2999 3000 3000 3001 3002 3003 3005 3006 3007 3009 3010 3012 3013 3014 3015 3016 3016 3017 3018 3019 3020 3021 3022 3022 3023 3023 3024 3025 3026 3027 3029 3031 3032 3033 3034 3035 3036 3037 3038 3039 3039 3040 3041 3041 3042 3042 3042 3043 3044 3045 3045 3046 3046 3047 3047 3047 3047 3047 3047 3047 3048 3048 3049 3049 3049 3050 3050 3050 3051 3052 3054 3054 3053 3052 3052 3052 3052 3051 3052 3052 3052 3051 3051
2991 2992 2994 2995 2996 2997 2998 2999 3001 3002 3004 3005 3007 3008 3009 3010 3011 3011 3012 3013 3014 3015 3016 3017 3018 3019 3019 3020 3021 3021 3022 3023 3024 3026 3027 3029 3030 3031 3032 3033 3034 3035 3036 3036 3037 3037 3038 3038 3039 3040 3040 3041 3042 3042 3042 3042 3043 3043 3043 3043 3043 3043 3044 3044 3045 3045 3045 3046 3045 3045 3045 3045 3046 3047 3047 3048 3048 3047 3047 3047 3047 3047 3047 3047 3046 3046
2988 2989 2990 2991 2992 2993 2995 2997 2998 3000 3002 3003 3005 3006 3007 3007 3008 3008 3009 3010 3011 3012 3013 3014 3015 3016 3017 3017 3018 3019 3019 3020 3021 3022 3024 3025 3027 3028 3029 3030 3031 3032 3032 3033 3034 3035 3035 3036 3036 3037 3037 3037 3038 3038 3038 3038 3038 3039 3039 3039 3040 3040 3040 3041 3041 3041 3042 3042 3042 3042 3041 3042 3042 3043 3043 3044 3044 3044 3043 3043 3042 3042 3042 3042 3042 3042
2984 2986 2987 2988 2989 2991 2992 2994 2996 2998 2999 3001 3002 3003 3004 3005 3006 3006 3007 3007 3008 3009 3010 3011 3012 3013 3014 3015 3016 3017 3017 3017 3018 3019 3020 3022 3023 3024 3026 3027 3028 3029 3030 3031 3031 3032 3032 3033 3033 3033 3033 3033 3033 3033 3033 3034 3034 3034 3035 3036 3036 3037 3037 3037 3037 3037 3038 3039 3039 3038 3038 3039 3039 3040 3040 3040 3040 3040 3039 3039 3038 3038 3038 3038 3038 3037
2981 2983 2984 2985 2987 2988 2989 2991 2993 2995 2997 2998 2999 3000 3002 3002 3003 3003 3003 3004 3005 3006 3007 3008 3009 3010 3012 3012 3013 3014 3015 3016 3016 3017 3018 3019 3020 3021 3023 3024 3025 3026 3027 3027 3028 3028 3029 3029 3029 3029 3029 3029 3029 3029 3030 3030 3030 3030 3031 3031 3032 3032 3032 3033 3033 3034 3035 3035 3035 3035 3035 3035 3036 3036 3036 3036 3036 3035 3035 3035 3035 3034 3034 3034 3033 3033
2979 2981 2982 2983 2984 2986 2987 2989 2990 2992 2993 2995 2995 2996 2997 2998 2999 2999 3000 3001 3002 3003 3004 3005 3007 3008 3009 3010 3011 3012 3012 3013 3014 3015 3015 3016 3017 3018 3019 3020 3021 3022 3022 3023 3023 3024 3024 3024 3024 3024 3024 3024 3025 3026 3026 3027 3027 3027 3027 3027 3028 3028 3029 3029 3030 3031 3031 3032 3032 3032 3032 3032 3032 3032 3032 3032 3032 3032 3032 3032 3031 3031 3031 3031 3030 3030
2977 2978 2979 2981 2982 2983 2985 2987 2988 2990 2991 2992 2992 2993 2994 2994 2996 2997 2998 2999 3000 3001 3002 3003 3004 3005 3006 3007 3007 3008 3009 3010 3010 3011 3011 3012 3012 3013 3015 3016 3017 3017 3018 3019 3019 3020 3020 3020 3020 3020 3021 3021 3022 3022 3023 3023 3024 3024 3024 3024 3025 3025 3026 3026 3027 3027 3028 3029 3029 3030 3030 3030 3030 3029 3029 3029 3029 3029 3029 3028 3028 3028 3028 3028 3027 3027
2976 2976 2977 2978 2980 2981 2983 2984 2986 2987 2988 2990 2991 2991 2992 2993 2994 2995 2996 2997 2998 2999 3001 3001 3002 3002 3003 3004 3004 3005 3006 3006 3007 3007 3008 3008 3009 3010 3012 3012 3013 3014 3016 3017 3017 3017 3017 3017 3017 3017 3018 3018 3019 3020 3020 3021 3021 3021 3022 3022 3022 3023 3023 3024 3024 3025 3025 3026 3026 3027 3027 3027 3027 3027 3027 3027 3027 3026 3026 3026 3025 3025 3025 3025 3025 3025
2976 2976 2976 2977 2978 2980 2981 2983 2984 2985 2987 2988 2989 2990 2991 2992 2992 2993 2995 2996 2997 2998 2999 3000 3000 3001 3002 3002 3003 3003 3003 3004 3004 3005 3006 3007 3007 3008 3009 3010 3011 3012 3013 3014 3014 3014 3014 3015 3015 3015 3015 3016 3016 3017 3017 3018 3018 3018 3019 3019 3019 3020 3020 3021 3022 3022 3022 3023 3023 3023 3023 3024 3024 3024 3024 3024 3024 3023 3023 3023 3022 3022 3022 3022 3022 3022
2975 2975 2975 2976 2977 2979 2980 2982 2983 2984 2985 2986 2987 2988 2989 2990 2991 2992 2993 2994 2995 2996 2997 2997 2998 2998 2999 3000 3001 3002 3002 3002 3002 3003 3004 3004 3005 3006 3007 3008 3008 3009 3010 3011 3012 3012 3012 3012 3012 3012 3013 3013 3014 3015 3015 3015 3016 3016 3016 3016 3017 3017 3017 3018 3018 3019 3019 3019 3020 3020 3020 3020 3021 3021 3021 3021 3021 3020 3020 3020 3019 3019 3019 3019 3019 3019
2973 2974 2975 2975 2976 2977 2979 2980 2982 2983 2984 2985 2986 2987 2988 2988 2989 2990 2991 2992 2993 2993 2994 2995 2995 2996 2997 2997 2998 2999 3000 3001 3001 3001 3002 3002 3003 3004 3005 3006 3006 3007 3007 3008 3008 3009 3009 3009 3010 3010 3011 3011 3012 3012 3012 3013 3013 3013 3013 3013 3014 3014 3014 3015 3015 3016 3016 3017 3017 3017 3017 3017 3017 3017 3017 3017 3017 3017 3016 3016 3016 3016 3016 3016 3016 3016
2972 2973 2974 2975 2976 2977 2978 2979 2980 2981 2982 2984 2985 2986 2987 2987 2988 2989 2990 2991 2991 2992 2992 2992 2993 2994 2994 2995 2996 2997 2997 2998 2999 2999 3000 3001 3001 3002 3003 3003 3004 3004 3005 3005 3006 3006 3007 3007 3007 3008 3008 3009 3009 3010 3010 3010 3010 3011 3011 3011 3011 3011 3012 3012 3012 3013 3013 3013 3013 3013 3013 3013 3013 3013 3013 3013 3013 3013 3013 3013 3013 3013 3013 3013 3013 3013
2971 2972 2973 2974 2975 2977 2977 2978 2979 2981 2982 2983 2984 2985 2986 2986 2987 2988 2988 2989 2990 2990 2991 2991 2991 2991 2992 2993 2993 2994 2996 2997 2997 2997 2998 2999 2999 3000 3001 3002 3002 3002 3002 3003 3003 3004 3004 3004 3005 3005 3006 3006 3006 3007 3007 3007 3007 3007 3008 3008 3008 3009 3009 3009 3010 3010 3010 3010 3010 3010 3010 3010 3010 3010 3010 3010 3010 3010 3010 3010 3010 3010 3010 3010 3010 3010
2970 2970 2971 2972 2974 2976 2977 2977 2979 2980 2981 2982 2983 2984 2985 2986 2987 2987 2988 2988 2989 2989 2989 2989 2989 2990 2991 2991 2991 2992 2993 2995 2995 2995 2996 2997 2997 2998 2998 2999 3000 3000 3000 3001 3001 3002 3002 3002 3002 3002 3003 3003 3003 3004 3004 3004 3004 3005 3005 3005 3005 3006 3006 3006 3007 3007 3007 3007 3007 3007 3007 3007 3007 3007 3007 3007 3007 3007 3007 3007 3007 3007 3007 3007 3007 3007
2968 2969 2970 2972 2973 2974 2975 2977 2978 2979 2980 2981 2982 2982 2983 2984 2985 2986 2986 2986 2987 2987 2987 2987 2987 2988 2989 2989 2990 2990 2991 2993 2993 2993 2994 2995 2996 2996 2996 2997 2998 2998 2998 2998 2999 2999 3000 2999 2999 3000 3000 3001 3001 3001 3001 3001 3002 3002 3002 3002 3002 3002 3003 3003 3003 3003 3003 3004 3004 3004 3004 3004 3004 3004 3004 3004 3004 3004 3004 3004 3004 3004 3004 3004 3004 3004
2967 2968 2969 2971 2972 2973 2974 2975 2977 2977 2978 2979 2979 2980 2981 2982 2982 2983 2983 2983 2984 2984 2984 2985 2985 2986 2987 2987 2987 2988 2989 2991 2991 2992 2992 2993 2993 2993 2994 2996 2996 2996 2995 2996 2997 2997 2997 2997 2997 2997 2998 2998 2998 2998 2998 2998 2999 2999 2999 2999 2999 3000 3000 3000 3000 3000 3000 3000 3000 3000 3001 3001 3001 3001 3001 3001 3001 3001 3001 3002 3002 3002 3002 3002 3001 3001
2966 2967 2968 2970 2971 2972 2973 2974 2975 2976 2977 2977 2977 2978 2979 2979 2980 2980 2980 2981 2981 2982 2982 2982 2983 2984 2984 2985 2986 2987 2987 2988 2989 2990 2990 2991 2991 2991 2992 2993 2994 2993 2993 2994 2995 2996 2995 2995 2995 2995 2996 2996 2996 2996 2996 2996 2996 2997 2997 2997 2997 2997 2997 2997 2997 2997 2997 2997 2997 2997 2998 2998 2998 2998 2998 2999 2999 2999 2999 2999 2999 2999 2999 2999 2999 2999
2965 2966 2967 2968 2969 2970 2971 2972 2973 2973 2974 2975 2975 2976 2976 2977 2977 2977 2978 2978 2979 2979 2980 2981 2982 2982 2982 2983 2984 2985 2985 2986 2987 2988 2988 2988 2988 2989 2990 2991 2992 2991 2991 2992 2992 2993 2993 2993 2993 2993 2993 2994 2993 2993 2994 2994 2994 2994 2994 2994 2994 2994 2994 2994 2994 2995 2995 2995 2995 2995 2996 2996 2996 2996 2996 2997 2997 2997 2997 2997 2997 2997 2997 2997 2997 2997
2963 2964 2965 2966 2967 2968 2968 2969 2970 2971 2972 2972 2972 2973 2974 2974 2975 2975 2976 2976 2977 2977 2978 2979 2979 2980 2980 2982 2982 2982 2982 2983 2985 2986 2986 2986 2987 2987 2987 2989 2989 2989 2989 2989 2990 2991 2991 2991 2991 2991 2991 2992 2992 2991 2992 2992 2992 2992 2992 2992 2992 2992 2992 2992 2992 2992 2992 2993 2993 2993 2993 2994 2994 2994 2994 2994 2994 2994 2994 2994 2994 2994 2994 2994 2994 2994
2962 2963 2963 2964 2965 2966 2966 2967 2967 2968 2969 2970 2970 2971 2971 2972 2972 2973 2973 2974 2974 2976 2977 2977 2977 2978 2979 2980 2981 2981 2981 2982 2982 2983 2983 2984 2985 2985 2985 2986 2987 2987 2987 2987 2988 2989 2989 2989 2988 2989 2989 2989 2989 2989 2989 2989 2989 2989 2989 2990 2990 2990 2990 2990 2990 2990 2990 2991 2991 2991 2991 2991 2992 2992 2992 2992 2992 2992 2992 2992 2992 2992 2992 2992 2991 2991
2961 2962 2962 2962 2963 2964 2964 2965 2965 2966 2967 2967 2968 2968 2969 2970 2971 2971 2971 2972 2973 2975 2975 2975 2976 2976 2977 2978 2978 2979 2979 2980 2981 2981 2982 2982 2983 2983 2983 2984 2985 2986 2985 2985 2985 2986 2987 2987 2987 2987 2987 2987 2987 2987 2987 2987 2987 2987 2987 2987 2987 2987 2988 2988 2988 2988 2988 2988 2988 2989 2989 2989 2989 2989 2989 2989 2989 2989 2989 2989 2989 2989 2989 2989 2989 2988
2959 2960 2961 2961 2962 2962 2963 2963 2964 2964 2965 2965 2966 2966 2967 2968 2968 2969 2969 2970 2972 2973 2973 2973 2974 2975 2976 2976 2977 2977 2977 2978 2978 2979 2980 2981 2981 2980 2980 2982 2983 2983 2983 2983 2983 2984 2985 2985 2985 2985 2985 2985 2985 2985 2985 2985 2985 2985 2985 2985 2985 2986 2986 2986 2986 2986 2986 2986 2986 2986 2987 2987 2987 2987 2987 2987 2987 2987 2987 2987 2986 2986 2986 2986 2986 2986
2958 2959 2959 2960 2960 2961 2961 2962 2962 2963 2963 2964 2964 2965 2965 2966 2967 2967 2968 2969 2970 2971 2972 2972 2972 2973 2974 2975 2975 2975 2976 2976 2976 2977 2979 2979 2978 2977 2978 2980 2981 2981 2981 2981 2982 2982 2982 2982 2983 2983 2983 2983 2983 2983 2983 2983 2983 2983 2983 2983 2983 2984 2984 2984 2984 2984 2984 2984 2984 2984 2984 2984 2984 2984 2984 2984 2984 2984 2984 2984 2984 2984 2984 2984 2983 2983
2957 2957 2958 2958 2959 2959 2960 2961 2961 2962 2962 2963 2963 2964 2964 2965 2966 2967 2967 2968 2969 2970 2970 2970 2971 2972 2972 2973 2974 2974 2974 2974 2975 2976 2977 2977 2976 2975 2977 2979 2979 2979 2979 2980 2980 2980 2980 2980 2981 2981 2982 2981 2981 2981 2981 2982 2982 2982 2981 2981 2981 2981 2981 2981 2981 2981 2981 2981 2982 2982 2982 2982 2982 2982 2982 2982 2982 2982 2981 2981 2981 2981 2981 2981 2981 2981
2955 2956 2957 2957 2957 2958 2959 2959 2960 2960 2961 2962 2962 2963 2964 2964 2965 2966 2966 2967 2967 2968 2968 2969 2970 2971 2971 2972 2972 2972 2972 2972 2973 2974 2975 2975 2974 2973 2975 2977 2977 2977 2977 2977 2978 2978 2978 2977 2978 2979 2979 2979 2979 2978 2978 2979 2979 2979 2979 2979 2979 2979 2979 2979 2979 2979 2979 2979 2979 2979 2979 2979 2979 2979 2979 2979 2979 2979 2979 2979 2979 2979 2979 2979 2979 2978
2954 2955 2955 2956 2956 2957 2957 2958 2959 2959 2960 2961 2962 2962 2963 2963 2964 2964 2965 2966 2966 2967 2967 2968 2968 2969 2970 2970 2971 2971 2971 2971 2972 2973 2973 2973 2972 2972 2973 2975 2975 2975 2974 2975 2976 2976 2976 2976 2976 2976 2977 2977 2977 2976 2976 2977 2977 2977 2977 2977 2976 2976 2976 2976 2977 2977 2976 2976 2976 2976 2977 2977 2977 2977 2977 2977 2977 2976 2976 2976 2976 2976 2977 2977 2976 2976
2952 2953 2954 2954 2955 2956 2956 2957 2957 2958 2959 2960 2961 2961 2962 2962 2963 2963 2964 2964 2965 2966 2966 2966 2967 2967 2968 2968 2969 2969 2969 2969 2970 2971 2972 2972 2971 2970 2971 2972 2973 2973 2972 2973 2973 2974 2974 2973 2973 2974 2974 2974 2974 2974 2974 2974 2974 2974 2974 2974 2974 2973 2973 2974 2974 2974 2974 2973 2974 2974 2974 2974 2974 2974 2974 2974 2974 2974 2974 2974 2974 2974 2974 2974 2974 2974
2951 2952 2952 2953 2953 2954 2955 2955 2956 2957 2957 2958 2959 2960 2960 2961 2962 2962 2962 2963 2963 2964 2964 2965 2965 2966 2966 2967 2967 2967 2967 2967 2968 2969 2969 2969 2969 2968 2969 2970 2970 2971 2971 2971 2971 2971 2972 2971 2971 2972 2972 2972 2972 2972 2972 2972 2972 2972 2971 2971 2971 2971 2971 2971 2972 2972 2971 2971 2971 2972 2972 2972 2972 2972 2972 2972 2972 2972 2972 2972 2972 2972 2972 2972 2972 2972
2950 2950 2951 2951 2952 2952 2953 2954 2954 2955 2956 2957 2957 2958 2959 2959 2960 2960 2961 2961 2962 2962 2962 2963 2963 2964 2964 2965 2965 2965 2965 2966 2966 2967 2967 2967 2967 2967 2967 2967 2968 2968 2969 2969 2968 2969 2969 2969 2969 2969 2970 2970 2969 2969 2970 2970 2970 2969 2969 2969 2969 2969 2969 2969 2969 2969 2969 2969 2969 2969 2969 2970 2970 2970 2969 2969 2970 2970 2970 2969 2969 2969 2969 2969 2969 2969
2948 2948 2949 2950 2950 2951 2952 2952 2953 2953 2954 2955 2956 2956 2957 2957 2958 2958 2959 2959 2960 2960 2961 2961 2961 2962 2962 2963 2963 2963 2963 2964 2965 2965 2965 2965 2965 2965 2965 2965 2966 2966 2967 2967 2966 2967 2967 2967 2967 2967 2967 2967 2967 2967 2967 2967 2968 2968 2967 2967 2967 2967 2967 2967 2967 2967 2967 2967 2967 2967 2967 2968 2968 2967 2967 2967 2967 2967 2967 2967 2967 2967 2967 2967 2967 2967
2947 2947 2947 2948 2949 2949 2950 2950 2951 2952 2952 2953 2954 2954 2955 2956 2956 2957 2957 2957 2958 2958 2959 2959 2960 2960 2960 2961 2961 2962 2962 2962 2962 2963 2963 2963 2963 2963 2963 2963 2964 2964 2965 2965 2965 2965 2965 2965 2965 2965 2965 2965 2965 2965 2965 2965 2966 2966 2965 2965 2965 2966 2965 2965 2965 2965 2966 2965 2965 2965 2966 2966 2966 2966 2965 2965 2965 2966 2965 2965 2965 2965 2965 2965 2965 2965
2945 2945 2946 2946 2947 2947 2948 2948 2949 2950 2951 2951 2952 2952 2953 2953 2954 2954 2955 2955 2956 2956 2957 2957 2957 2958 2958 2959 2959 2959 2960 2960 2960 2961 2961 2961 2961 2962 2962 2962 2962 2962 2963 2963 2963 2963 2963 2963 2963 2963 2963 2963 2963 2963 2963 2963 2963 2963 2963 2963 2964 2963 2963 2963 2963 2963 2963 2963 2963 2963 2963 2963 2964 2964 2963 2963 2963 2964 2963 2963 2963 2963 2963 2963 2963 2962
2943 2944 2944 2944 2945 2946 2946 2947 2947 2948 2949 2949 2950 2950 2951 2952 2952 2952 2953 2953 2954 2954 2955 2955 2956 2956 2956 2957 2957 2957 2958 2958 2958 2959 2959 2959 2959 2960 2960 2960 2960 2961 2961 2961 2961 2961 2961 2961 2961 2961 2962 2962 2961 2961 2961 2962 2962 2962 2962 2962 2962 2961 2962 2962 2962 2962 2961 2961 2962 2962 2962 2962 2962 2962 2962 2962 2962 2962 2962 2961 2961 2961 2961 2961 2961 2961
2942 2942 2942 2943 2943 2944 2944 2945 2946 2946 2947 2947 2948 2948 2949 2950 2950 2951 2951 2951 2952 2952 2952 2953 2953 2954 2954 2955 2955 2956 2956 2956 2957 2957 2957 2957 2957 2958 2958 2958 2958 2959 2959 2959 2959 2959 2959 2959 2959 2959 2959 2960 2960 2959 2959 2959 2959 2960 2960 2960 2959 2959 2960 2960 2960 2960 2959 2959 2959 2959 2960 2960 2960 2960 2960 2960 2959 2959 2959 2959 2959 2959 2958 2959 2959 2958
2940 2941 2941 2942 2942 2942 2943 2943 2944 2945 2945 2946 2946 2947 2947 2948 2948 2948 2949 2949 2950 2950 2951 2951 2952 2952 2952 2953 2953 2953 2954 2954 2955 2955 2955 2955 2956 2956 2956 2957 2957 2957 2957 2957 2957 2957 2957 2957 2957 2957 2957 2957 2958 2958 2957 2957 2957 2958 2958 2957 2957 2957 2957 2958 2958 2958 2957 2957 2957 2957 2957 2958 2957 2957 2957 2957 2957 2957 2957 2957 2957 2957 2956 2956 2956 2956
2939 2939 2940 2941 2941 2941 2942 2942 2943 2943 2943 2944 2944 2945 2945 2946 2947 2947 2947 2947 2948 2948 2949 2949 2950 2950 2950 2951 2951 2952 2952 2952 2953 2953 2953 2953 2954 2954 2954 2954 2955 2955 2955 2955 2955 2955 2955 2956 2956 2955 2955 2955 2956 2956 2955 2955 2955 2956 2956 2956 2955 2955 2955 2955 2955 2956 2956 2955 2955 2955 2955 2956 2956 2955 2955 2955 2955 2955 2955 2955 2954 2954 2954 2954 2953 2953
2938 2938 2939 2939 2940 2940 2941 2941 2941 2942 2942 2942 2943 2943 2944 2944 2945 2945 2945 2945 2946 2946 2947 2947 2947 2948 2948 2949 2949 2950 2950 2951 2951 2951 2951 2952 2952 2952 2952 2952 2952 2953 2953 2953 2953 2953 2953 2954 2954 2953 2953 2953 2954 2953 2953 2953 2953 2953 2953 2953 2953 2953 2953 2952 2953 2953 2954 2953 2952 2953 2953 2953 2953 2953 2953 2953 2953 2953 2952 2952 2952 2952 2951 2951 2951 2951
2937 2937 2937 2938 2938 2939 2939 2939 2940 2940 2941 2941 2941 2942 2942 2942 2943 2943 2943 2943 2944 2944 2945 2945 2946 2946 2947 2947 2947 2948 2948 2949 2949 2949 2949 2950 2950 2950 2950 2950 2951 2951 2951 2951 2951 2951 2951 2951 2951 2951 2952 2952 2952 2951 2951 2951 2951 2951 2951 2951 2951 2951 2950 2950 2951 2951 2951 2951 2951 2951 2951 2951 2951 2951 2950 2950 2950 2950 2950 2950 2950 2949 2949 2948 2948 2948
2935 2935 2936 2936 2937 2937 2937 2938 2938 2938 2939 2939 2939 2940 2940 2941 2941 2941 2941 2942 2942 2942 2943 2943 2944 2944 2944 2945 2946 2946 2946 2947 2947 2947 2947 2948 2948 2948 2948 2948 2948 2948 2949 2949 2949 2949 2949 2949 2949 2949 2949 2949 2949 2949 2949 2949 2949 2949 2949 2949 2949 2949 2948 2948 2948 2948 2949 2948 2948 2948 2948 2949 2948 2948 2948 2948 2948 2948 2948 2947 2947 2947 2946 2946 2946 2945
2933 2934 2934 2934 2935 2935 2936 2936 2936 2937 2937 2937 2937 2938 2938 2939 2939 2939 2939 2940 2940 2940 2941 2941 2942 2942 2942 2943 2943 2944 2944 2944 2945 2945 2945 2946 2946 2946 2946 2946 2946 2946 2947 2947 2947 2947 2947 2947 2947 2947 2947 2947 2947 2947 2947 2947 2947 2947 2947 2946 2947 2947 2946 2946 2946 2946 2947 2947 2946 2946 2946 2947 2946 2946 2946 2946 2946 2946 2945 2945 2945 2944 2944 2943 2943 2942
2932 2932 2932 2933 2933 2933 2934 2934 2934 2935 2935 2935 2936 2936 2937 2937 2937 2937 2937 2938 2938 2938 2939 2939 2940 2940 2940 2941 2941 2942 2942 2942 2942 2942 2943 2943 2943 2943 2943 2944 2944 2944 2944 2944 2944 2944 2944 2944 2945 2945 2945 2945 2945 2945 2945 2945 2945 2945 2944 2944 2944 2944 2944 2944 2944 2944 2944 2944 2944 2944 2944 2944 2944 2944 2943 2943 2943 2943 2943 2942 2942 2942 2941 2940 2940 2939
2930 2930 2931 2931 2932 2932 2932 2932 2933 2933 2933 2934 2934 2934 2935 2935 2935 2936 2936 2936 2937 2937 2937 2937 2938 2938 2938 2938 2939 2939 2940 2940 2940 2940 2940 2941 2941 2941 2941 2941 2941 2941 2942 2942 2942 2942 2942 2942 2942 2942 2942 2943 2943 2942 2942 2943 2943 2942 2942 2942 2942 2942 2942 2942 2942 2942 2942 2942 2942 2942 2942 2942 2942 2941 2941 2941 2941 2940 2940 2940 2939 2939 2938 2938 2937 2936
2928 2928 2929 2929 2930 2930 2931 2931 2931 2932 2932 2932 2932 2933 2933 2933 2934 2934 2934 2935 2935 2935 2935 2936 2936 2936 2936 2937 2937 2937 2937 2937 2938 2938 2938 2938 2938 2938 2938 2938 2938 2939 2939 2939 2939 2940 2940 2940 2940 2940 2940 2941 2941 2940 2940 2940 2940 2940 2940 2939 2939 2939 2940 2939 2940 2940 2940 2940 2939 2939 2939 2939 2939 2939 2938 2938 2938 2937 2937 2937 2937 2936 2936 2935 2934 2933
2927 2927 2927 2928 2928 2928 2929 2929 2930 2930 2930 2931 2931 2931 2932 2932 2932 2932 2933 2933 2933 2933 2934 2934 2934 2934 2934 2935 2935 2935 2935 2935 2935 2936 2936 2936 2936 2936 2936 2936 2936 2936 2937 2937 2937 2937 2937 2937 2937 2937 2938 2938 2938 2938 2937 2937 2937 2937 2937 2937 2937 2937 2937 2937 2937 2937 2938 2937 2937 2937 2937 2937 2936 2936 2936 2936 2935 2935 2935 2934 2934 2933 2933 2932 2931 2930